Regional Weather Roundup
Issued by NWS Sterling, VA

Home | Current Version | Previous Version | Graphics & Text | Print | Product List | Glossary On
Versions: 1 2 3 4 5 6 7 8 9 10 11 12 13 14 15 16 17 18 19 20 21 22 23 24 25 26 27 28 29 30 31 32 33 34 35 36 37 38 39 40 41 42 43 44 45 46 47 48 49
000
ASUS41 KLWX 240510
RWRLWX

REGIONAL WEATHER ROUNDUP
NATIONAL WEATHER SERVICE BALTIMORE MD/WASHINGTON DC
1200 AM EST WED DEC 24 2014

Note: "FAIR" indicates few or no clouds below 12,000 feet
with no significant weather and/or obstructions to visibility.
 TC=TEMPERATURE CELSIUS

 * =Non NWS site. Station does not report precipitation (e.g. rain,
    snow, etc.), thunder, or fog.

DCZ001-MDZ009-015-VAZ040>042-051-053>054-240600-
WASHINGTON METRO

CITY           SKY/WX    TMP DP  RH WIND       PRES   REMARKS
WASHINGTON NAT LGT RAIN  46  43  87 CALM      30.03F FOG
DULLES         LGT RAIN  42  42 100 CALM      30.02F VSB 1/2
ANDREWS AFB    DRZL/FOG  45  45 100 SE2       30.03F VSB 1/2
FT BELVOIR     RAIN      43  43 100 VRB2      30.01F FOG
QUANTICO       RAIN      43  41  93 CALM      30.03F FOG
COLLEGE PARK*  CLOUDY    46  46 100 CALM      30.03F VSB 3/4
LEESBURG*      RAIN      43  43 100 CALM      30.03F VSB 3/4
MANASSAS*      CLOUDY    43  43 100 W3        30.03F
GAITHERSBURG*  CLOUDY    45  43  93 CALM      30.06R VSB 1/4

$$

MDZ006>007-011-014-240600-
BALTIMORE METRO

CITY           SKY/WX    TMP DP  RH WIND       PRES   REMARKS
BWI AIRPORT    DRZL/FOG  46  46 100 E3        30.03F VSB 1/2
MD SCIENCE CTR   N/A     43  43 100 MISG      30.03F
MARTIN STATE   DRIZZLE   45  45 100 CALM      30.05F
ANNAPOLIS      FOG       44  43  96 SE5       30.04F VSB 1/4
FORT MEADE*    CLOUDY    45  45 100 CALM      30.05F VSB 3/4

$$

MDZ012-015-019>023-240600-
MARYLAND EASTERN SHORE

CITY           SKY/WX    TMP DP  RH WIND       PRES   REMARKS
OCEAN CITY     FOG       47  46  97 NE5       30.05F VSB 3/4
SALISBURY      CLOUDY    52  49  89 NE5       30.04F FOG
BAY BRIDGE AP* FOG       45  45 100 CALM      30.04F VSB 1/4
CAMBRIDGE*     CLOUDY    46  45  93 CALM      30.03F VSB 1/2
EASTON*        FOG       49  49 100 CALM      30.07F VSB 1/4

$$

MDZ017>025-240600-
SOUTHERN MARYLAND

CITY           SKY/WX    TMP DP  RH WIND       PRES   REMARKS
PATUXENT RIVER LGT RAIN  45  42  89 E5        30.02F FOG
ST INIGOES     LGT RAIN  46  42  86 CALM      30.03F FOG
LEONARDTOWN*   CLOUDY    45  43  93 CALM      30.04F

$$

MDZ003>005-240600-
NORTH CENTRAL MARYLAND

CITY           SKY/WX    TMP DP  RH WIND       PRES   REMARKS
FREDERICK*     CLOUDY    45  41  87 CALM      30.06R FOG
HAGERSTOWN APT FOG       40  38  93 SW5       30.02R VSB 1/2
WESTMINSTER*   CLOUDY    48  46  93 SE8       30.01F FOG

$$

MDZ501>502-240600-
WESTERN MARYLAND

CITY           SKY/WX    TMP DP  RH WIND       PRES   REMARKS
OAKLAND*       FOG       37 N/A N/A SE10      29.91S VSB 1/4
CUMBERLAND*    CLOUDY    37  37 100 CALM      30.05S VSB 1/4

$$

VAZ025>031-240600-
SHENANDOAH VALLEY

CITY           SKY/WX    TMP DP  RH WIND       PRES   REMARKS
WINCHESTER*    RAIN      39  36  87 CALM      30.01F
FRONT ROYAL*   CLOUDY    37  37 100 CALM      30.01S
LURAY*         RAIN      41  41 100 CALM      30.00F
NEW MARKET*    CLOUDY    39  39  99 NE3       29.99F
STAUNTON*      LGT RAIN  42  40  93 CALM      29.99F
WAYNESBORO*    CLOUDY    42  41  99 E3        29.97F

$$

WVZ021-048>050-054>055-240600-
EASTERN WEST VIRGINIA PANHANDLE

CITY           SKY/WX    TMP DP  RH WIND       PRES   REMARKS
MARTINSBURG    LGT RAIN  40  37  89 CALM      30.02S VSB 1/2
PETERSBURG*    LGT RAIN  37  37 100 CALM      30.00F

$$

VAZ036>039-050-240600-
CENTRAL FOOTHILLS

CITY           SKY/WX    TMP DP  RH WIND       PRES   REMARKS
CHARLOTTESVILL LGT RAIN  43  42  97 N5        30.00F FOG
CULPEPER*      RAIN      45  45 100 CALM      30.03F
ORANGE*        LGT RAIN  45  43  93 CALM      30.03F
GORDONSVILLE*  CLOUDY    43  42  99 CALM      30.02S FOG
WARRENTON*     LGT RAIN  44  44 100 CALM      30.02S

$$

VAZ055>057-240600-
NORTH AND CENTRAL PIEDMONT

CITY           SKY/WX    TMP DP  RH WIND       PRES   REMARKS
FREDERICKSBRG* RAIN      45  45 100 CALM      30.03S
STAFFORD*      RAIN      44  44 100 CALM      30.06F

$$

NCZ024-NYZ072-PAZ021-071-VAZ022-071-240600-
OTHER REGIONAL OBSERVATIONS

CITY           SKY/WX    TMP DP  RH WIND       PRES   REMARKS
NEW YORK CITY  CLOUDY    45  43  93 VRB6      30.11S FOG
PHILADELPHIA   CLOUDY    47  45  93 E6        30.06F FOG
PITTSBURGH     LGT RAIN  47  43  86 E9        29.83S
ROANOKE        FOG       42  41  96 S3        30.01R VSB 1
RICHMOND       RAIN      46  43  87 CALM      30.00F FOG
RALEIGH        LGT RAIN  47  44  90 E6        29.94F VSB 1/2

$$

ANZ530>537-240600-
MARINE OBSERVATIONS

STATION/POSITION TIME  TEMP    WIND        PRES
                       AIR SEA DIR/SP/G
                 (UTC) (F)     (DEG/KT/KT) (MB)
THOMAS PT LIGHT  0500   45 41  120/  4/  4 1018.4F
BALT KEY BRIDGE  0500   44      70/  5/  6 1017.0F
COVE POINT       0500   42     160/  3/  4 1017.0F
LEWISETTA        0500   43 41   40/  3/  3 1016.4F
SOLOMONS ISLAND  0500      43                N/A
PINEY POINT      0500           CALM  /  1   N/A

$$




USA.gov is the U.S. government's official web portal to all federal, state and local government web resources and services.